When you browse on this site, cookies collect data to enhance your experience and personalize the content and advertising you see.
Visit our Privacy Policy to learn more. By continuing to use the site, you agree to this use of cookies and data.
  • In Denmark
  • List of Countries
  • For 7 days
  • Water Temperature
  • Satellite Maps
  • Weather Map
  • Weather Widgets
  • user-avatar
    Login

    Hourly Weather Brecon

    Today, 22 April, Monday

    Time Temperature Precipitation Wind Pressure Humidity
    00:00 +10°C° 0 mm 2 mps 743 mmHg 86%
    01:00 +10°C° 0 mm 2 mps 742 mmHg 86%
    02:00 +9°C° 0 mm 2 mps 741 mmHg 87%
    03:00 +9°C° 0 mm 2 mps 740 mmHg 87%
    04:00 +8°C° 0 mm 3 mps 740 mmHg 86%
    05:00 +8°C° 0 mm 3 mps 739 mmHg 84%
    06:00 +8°C° 0 mm 3 mps 739 mmHg 83%
    07:00 +10°C° 0 mm 3 mps 739 mmHg 79%
    08:00 +12°C° 0 mm 4 mps 738 mmHg 75%
    09:00 +13°C° 0 mm 4 mps 738 mmHg 71%
    10:00 +15°C° 0.1 mm 4 mps 738 mmHg 69%
    11:00 +17°C° 0.1 mm 5 mps 737 mmHg 67%
    12:00 +19°C° 0.1 mm 5 mps 737 mmHg 65%
    13:00 +19°C° 0.5 mm 5 mps 736 mmHg 67%
    14:00 +19°C° 0.5 mm 5 mps 736 mmHg 69%
    15:00 +17°C° 0.5 mm 6 mps 735 mmHg 71%
    16:00 +17°C° 0.3 mm 5 mps 735 mmHg 75%
    17:00 +17°C° 0.3 mm 4 mps 735 mmHg 79%
    18:00 +16°C° 0.3 mm 3 mps 735 mmHg 83%
    19:00 +14°C° 0 mm 3 mps 735 mmHg 85%
    20:00 +13°C° 0 mm 2 mps 735 mmHg 87%
    21:00 +12°C° 0 mm 2 mps 735 mmHg 89%
    22:00 +12°C° 0.1 mm 2 mps 735 mmHg 90%
    23:00 +12°C° 0.1 mm 2 mps 734 mmHg 91%

    Tomorrow, 23 April, Tuesday

    Time Temperature Precipitation Wind Pressure Humidity
    00:00 +12°C° 0.1 mm 2 mps 734 mmHg 92%
    01:00 +12°C° 0 mm 2 mps 734 mmHg 91%
    02:00 +11°C° 0 mm 3 mps 733 mmHg 90%
    03:00 +11°C° 0 mm 3 mps 732 mmHg 90%
    04:00 +11°C° 0 mm 4 mps 732 mmHg 91%
    05:00 +11°C° 0 mm 4 mps 732 mmHg 92%
    06:00 +11°C° 0 mm 4 mps 732 mmHg 93%
    07:00 +12°C° 0 mm 4 mps 732 mmHg 88%
    08:00 +14°C° 0 mm 4 mps 732 mmHg 84%
    09:00 +15°C° 0 mm 4 mps 732 mmHg 79%
    10:00 +16°C° 0.2 mm 5 mps 732 mmHg 76%
    11:00 +19°C° 0.2 mm 5 mps 732 mmHg 73%
    12:00 +20°C° 0.2 mm 6 mps 731 mmHg 71%
    13:00 +20°C° 0.3 mm 5 mps 731 mmHg 70%
    14:00 +20°C° 0.3 mm 5 mps 731 mmHg 68%
    15:00 +21°C° 0.3 mm 5 mps 731 mmHg 67%
    16:00 +20°C° 0.3 mm 5 mps 730 mmHg 72%
    17:00 +19°C° 0.3 mm 4 mps 730 mmHg 77%
    18:00 +18°C° 0.3 mm 4 mps 730 mmHg 82%
    19:00 +16°C° 0 mm 3 mps 730 mmHg 85%
    20:00 +14°C° 0 mm 3 mps 730 mmHg 88%
    21:00 +12°C° 0 mm 3 mps 730 mmHg 92%
    22:00 +13°C° 0 mm 2 mps 730 mmHg 93%
    23:00 +12°C° 0 mm 2 mps 730 mmHg 94%

    Day after tomorrow, 24 April, Wednesday

    Time Temperature Precipitation Wind Pressure Humidity
    00:00 +10°C° 0 mm 2 mps 730 mmHg 96%
    01:00 +10°C° 0.2 mm 2 mps 729 mmHg 96%
    02:00 +10°C° 0.2 mm 3 mps 729 mmHg 96%
    03:00 +10°C° 0.2 mm 3 mps 729 mmHg 96%
    04:00 +10°C° 3 mm 3 mps 729 mmHg 96%
    05:00 +10°C° 3 mm 3 mps 728 mmHg 96%
    06:00 +10°C° 3 mm 4 mps 728 mmHg 96%
    07:00 +8°C° 1.4 mm 4 mps 728 mmHg 94%
    08:00 +8°C° 1.4 mm 4 mps 729 mmHg 92%
    09:00 +8°C° 1.4 mm 4 mps 729 mmHg 90%
    10:00 +8°C° 0.3 mm 4 mps 729 mmHg 89%
    11:00 +10°C° 0.3 mm 4 mps 729 mmHg 88%
    12:00 +10°C° 0.3 mm 4 mps 729 mmHg 87%
    13:00 +10°C° 0.6 mm 4 mps 729 mmHg 86%
    14:00 +9°C° 0.6 mm 5 mps 729 mmHg 85%
    15:00 +9°C° 0.6 mm 6 mps 730 mmHg 85%
    16:00 +9°C° 0.1 mm 6 mps 729 mmHg 84%
    17:00 +9°C° 0.1 mm 6 mps 729 mmHg 83%
    18:00 +9°C° 0.1 mm 6 mps 729 mmHg 82%
    19:00 +9°C° 0 mm 6 mps 728 mmHg 84%
    20:00 +8°C° 0 mm 7 mps 728 mmHg 86%
    21:00 +6°C° 0 mm 7 mps 728 mmHg 88%
    22:00 +6°C° 0.7 mm 7 mps 728 mmHg 90%
    23:00 +8°C° 0.7 mm 7 mps 727 mmHg 92%

    25 April, Thursday

    Time Temperature Precipitation Wind Pressure Humidity
    00:00 +8°C° 0.7 mm 7 mps 727 mmHg 94%
    01:00 +8°C° 2 mm 7 mps 727 mmHg 93%
    02:00 +8°C° 2 mm 7 mps 727 mmHg 92%
    03:00 +8°C° 2 mm 7 mps 727 mmHg 91%
    04:00 +6°C° 0.1 mm 7 mps 727 mmHg 90%
    05:00 +6°C° 0.1 mm 7 mps 727 mmHg 88%
    06:00 +5°C° 0.1 mm 7 mps 727 mmHg 87%
    07:00 +6°C° 0.1 mm 8 mps 727 mmHg 84%
    08:00 +7°C° 0.1 mm 9 mps 727 mmHg 81%
    09:00 +8°C° 0.1 mm 10 mps 728 mmHg 78%
    10:00 +8°C° 0.2 mm 11 mps 727 mmHg 77%
    11:00 +8°C° 0.2 mm 12 mps 727 mmHg 76%
    12:00 +8°C° 0.2 mm 13 mps 727 mmHg 74%
    13:00 +8°C° 0.8 mm 12 mps 727 mmHg 79%
    14:00 +7°C° 0.8 mm 12 mps 728 mmHg 84%
    15:00 +7°C° 0.8 mm 12 mps 728 mmHg 88%
    16:00 +7°C° 0.3 mm 10 mps 729 mmHg 87%
    17:00 +8°C° 0.3 mm 9 mps 730 mmHg 86%
    18:00 +9°C° 0.3 mm 7 mps 731 mmHg 85%
    19:00 +9°C° 0.1 mm 7 mps 732 mmHg 87%
    20:00 +8°C° 0.1 mm 7 mps 733 mmHg 89%
    21:00 +6°C° 0.1 mm 7 mps 733 mmHg 90%
    22:00 +6°C° 0 mm 7 mps 734 mmHg 90%
    23:00 +6°C° 0 mm 7 mps 734 mmHg 89%

    26 April, Friday

    Time Temperature Precipitation Wind Pressure Humidity
    00:00 +6°C° 0 mm 7 mps 734 mmHg 89%
    01:00 +6°C° 0 mm 7 mps 734 mmHg 88%
    02:00 +6°C° 0 mm 8 mps 735 mmHg 87%
    03:00 +6°C° 0 mm 8 mps 735 mmHg 86%
    04:00 +6°C° 0.2 mm 8 mps 736 mmHg 87%
    05:00 +6°C° 0.2 mm 8 mps 736 mmHg 89%
    06:00 +6°C° 0.2 mm 7 mps 737 mmHg 90%
    07:00 +7°C° 0.3 mm 8 mps 738 mmHg 87%
    08:00 +7°C° 0.3 mm 8 mps 739 mmHg 84%
    09:00 +7°C° 0.3 mm 9 mps 740 mmHg 81%
    10:00 +7°C° 0.1 mm 9 mps 741 mmHg 75%
    11:00 +8°C° 0.1 mm 9 mps 741 mmHg 69%
    12:00 +8°C° 0.1 mm 9 mps 742 mmHg 63%
    13:00 +8°C° 0 mm 9 mps 742 mmHg 66%
    14:00 +8°C° 0 mm 9 mps 742 mmHg 68%
    15:00 +8°C° 0 mm 9 mps 741 mmHg 71%
    16:00 +8°C° 0.7 mm 10 mps 740 mmHg 77%
    17:00 +7°C° 0.7 mm 12 mps 739 mmHg 83%
    18:00 +7°C° 0.7 mm 13 mps 738 mmHg 90%
    19:00 +6°C° 0.5 mm 14 mps 737 mmHg 85%
    20:00 +5°C° 0.5 mm 14 mps 737 mmHg 81%
    21:00 +5°C° 0.5 mm 15 mps 737 mmHg 76%
    22:00 +4°C° 0 mm 14 mps 738 mmHg 73%
    23:00 +4°C° 0 mm 13 mps 739 mmHg 70%

    27 April, Saturday

    Time Temperature Precipitation Wind Pressure Humidity
    00:00 +4°C° 0 mm 11 mps 741 mmHg 67%
    01:00 +3°C° 0.1 mm 10 mps 741 mmHg 69%
    02:00 +3°C° 0.1 mm 9 mps 742 mmHg 71%
    03:00 +2°C° 0.1 mm 8 mps 743 mmHg 72%
    04:00 +2°C° 0.1 mm 8 mps 743 mmHg 72%
    05:00 +2°C° 0.1 mm 8 mps 744 mmHg 72%
    06:00 +3°C° 0.1 mm 7 mps 744 mmHg 73%
    07:00 +4°C° 0.1 mm 8 mps 745 mmHg 72%
    08:00 +5°C° 0.1 mm 9 mps 745 mmHg 72%
    09:00 +6°C° 0.1 mm 9 mps 745 mmHg 71%
    10:00 +6°C° 0.3 mm 9 mps 745 mmHg 71%
    11:00 +7°C° 0.3 mm 10 mps 745 mmHg 71%
    12:00 +7°C° 0.3 mm 10 mps 746 mmHg 71%
    13:00 +7°C° 0.3 mm 9 mps 745 mmHg 73%
    14:00 +7°C° 0.3 mm 9 mps 745 mmHg 74%
    15:00 +8°C° 0.3 mm 9 mps 745 mmHg 75%
    16:00 +7°C° 0.2 mm 8 mps 745 mmHg 78%
    17:00 +7°C° 0.2 mm 8 mps 745 mmHg 80%
    18:00 +7°C° 0.2 mm 8 mps 745 mmHg 83%
    19:00 +6°C° 0 mm 7 mps 745 mmHg 85%
    20:00 +6°C° 0 mm 7 mps 745 mmHg 86%
    21:00 +5°C° 0 mm 6 mps 745 mmHg 88%
    22:00 +5°C° 0.1 mm 6 mps 745 mmHg 88%
    23:00 +5°C° 0.1 mm 6 mps 745 mmHg 88%
    Show more